#Datum;Uhrzeit;WR;Pac;DaySum;Status;WR;Pac;DaySum;Status;Pdc1;Udc;Temp;WR;Pac;DaySum;Status;Pdc1;Udc;Temp;WR;Pac;DaySum;Status;Pdc1;Udc;Temp;WR;Pac;DaySum;Status;Pdc1;Pdc2;Udc1;Udc2;Temp;WR;Pac;DaySum;Status;Pdc1;Pdc2;Udc1;Udc2;Temp;WR;Pac;DaySum;Status;Pdc1;Udc;Temp;WR;Pac;DaySum;Status;Pdc1;Udc;Temp;WR;Pac;DaySum;Status;Pdc1;Udc;Temp
31.01.21;23:55:00;1;389;19744;0;2;0;2855;0;0;0;0;3;0;1071;0;0;0;0;4;0;1092;0;0;0;0;5;0;0;0;0;0;0;0;0;6;0;3711;0;0;0;0;0;0;7;0;9249;0;0;0;0;8;0;9212;0;0;0;0;9;0;4899;0;0;0;0
31.01.21;23:50:00;1;464;19712;0;2;0;2855;0;0;0;0;3;0;1071;0;0;0;0;4;0;1092;0;0;0;0;5;0;0;0;0;0;0;0;0;6;0;3711;0;0;0;0;0;0;7;0;9249;0;0;0;0;8;0;9212;0;0;0;0;9;0;4899;0;0;0;0
31.01.21;23:45:00;1;439;19673;0;2;0;2855;0;0;0;0;3;0;1071;0;0;0;0;4;0;1092;0;0;0;0;5;0;0;0;0;0;0;0;0;6;0;3711;0;0;0;0;0;0;7;0;9249;0;0;0;0;8;0;9212;0;0;0;0;9;0;4899;0;0;0;0
31.01.21;23:40:00;1;558;19637;0;2;0;2855;0;0;0;0;3;0;1071;0;0;0;0;4;0;1092;0;0;0;0;5;0;0;0;0;0;0;0;0;6;0;3711;0;0;0;0;0;0;7;0;9249;0;0;0;0;8;0;9212;0;0;0;0;9;0;4899;0;0;0;0
31.01.21;23:35:00;1;396;19568;0;2;0;2855;0;0;0;0;3;0;1071;0;0;0;0;4;0;1092;0;0;0;0;5;0;0;0;0;0;0;0;0;6;0;3711;0;0;0;0;0;0;7;0;9249;0;0;0;0;8;0;9212;0;0;0;0;9;0;4899;0;0;0;0
31.01.21;23:30:00;1;400;19535;0;2;0;2855;0;0;0;0;3;0;1071;0;0;0;0;4;0;1092;0;0;0;0;5;0;0;0;0;0;0;0;0;6;0;3711;0;0;0;0;0;0;7;0;9249;0;0;0;0;8;0;9212;0;0;0;0;9;0;4899;0;0;0;0
31.01.21;23:25:00;1;410;19501;0;2;0;2855;0;0;0;0;3;0;1071;0;0;0;0;4;0;1092;0;0;0;0;5;0;0;0;0;0;0;0;0;6;0;3711;0;0;0;0;0;0;7;0;9249;0;0;0;0;8;0;9212;0;0;0;0;9;0;4899;0;0;0;0
31.01.21;23:20:00;1;813;19466;0;2;0;2855;0;0;0;0;3;0;1071;0;0;0;0;4;0;1092;0;0;0;0;5;0;0;0;0;0;0;0;0;6;0;3711;0;0;0;0;0;0;7;0;9249;0;0;0;0;8;0;9212;0;0;0;0;9;0;4899;0;0;0;0
31.01.21;23:15:00;1;477;19392;0;2;0;2855;0;0;0;0;3;0;1071;0;0;0;0;4;0;1092;0;0;0;0;5;0;0;0;0;0;0;0;0;6;0;3711;0;0;0;0;0;0;7;0;9249;0;0;0;0;8;0;9212;0;0;0;0;9;0;4899;0;0;0;0
31.01.21;23:10:00;1;484;19353;0;2;0;2855;0;0;0;0;3;0;1071;0;0;0;0;4;0;1092;0;0;0;0;5;0;0;0;0;0;0;0;0;6;0;3711;0;0;0;0;0;0;7;0;9249;0;0;0;0;8;0;9212;0;0;0;0;9;0;4899;0;0;0;0
31.01.21;23:07:00;1;461;19329;0;2;0;2855;0;0;0;0;3;0;1071;0;0;0;0;4;0;1092;0;0;0;0;5;0;0;0;0;0;0;0;0;6;0;3711;0;0;0;0;0;0;7;0;9249;0;0;0;0;8;0;9212;0;0;0;0;9;0;4899;0;0;0;0
31.01.21;23:00:00;1;1070;19275;0;2;0;2855;0;0;0;0;3;0;1071;0;0;0;0;4;0;1092;0;0;0;0;5;0;0;0;0;0;0;0;0;6;0;3711;0;0;0;0;0;0;7;0;9249;0;0;0;0;8;0;9212;0;0;0;0;9;0;4899;0;0;0;0
31.01.21;22:55:00;1;809;19202;0;2;0;2855;0;0;0;0;3;0;1071;0;0;0;0;4;0;1092;0;0;0;0;5;0;0;0;0;0;0;0;0;6;0;3711;2;0;0;0;0;0;7;0;9249;0;0;0;0;8;0;9212;0;0;0;0;9;0;4899;0;0;0;0
31.01.21;22:50:00;1;670;19145;0;2;0;2855;0;0;0;0;3;0;1071;0;0;0;0;4;0;1092;0;0;0;0;5;0;0;0;0;0;0;0;0;6;0;3711;2;0;0;0;0;0;7;0;9249;0;0;0;0;8;0;9212;0;0;0;0;9;0;4899;0;0;0;0
31.01.21;22:45:00;1;622;19091;0;2;0;2855;0;0;0;0;3;0;1071;0;0;0;0;4;0;1092;0;0;0;0;5;0;0;0;0;0;0;0;0;6;0;3711;2;0;0;0;0;0;7;0;9249;0;0;0;0;8;0;9212;0;0;0;0;9;0;4899;0;0;0;0
31.01.21;22:40:00;1;757;19040;0;2;0;2855;0;0;0;0;3;0;1071;0;0;0;0;4;0;1092;0;0;0;0;5;0;0;0;0;0;0;0;0;6;0;3711;2;0;0;0;0;0;7;0;9249;0;0;0;0;8;0;9212;0;0;0;0;9;0;4899;0;0;0;0
31.01.21;22:35:00;1;973;18977;0;2;0;2855;0;0;0;0;3;0;1071;0;0;0;0;4;0;1092;0;0;0;0;5;0;0;0;0;0;0;0;0;6;0;3711;2;0;0;0;0;0;7;0;9249;0;0;0;0;8;0;9212;0;0;0;0;9;0;4899;0;0;0;0
31.01.21;22:30:00;1;694;18881;0;2;0;2855;0;0;0;0;3;0;1071;0;0;0;0;4;0;1092;0;0;0;0;5;0;0;0;0;0;0;0;0;6;0;3711;2;0;0;0;0;0;7;0;9249;0;0;0;0;8;0;9212;0;0;0;0;9;0;4899;0;0;0;0
31.01.21;22:25:00;1;737;18823;0;2;0;2855;0;0;0;0;3;0;1071;0;0;0;0;4;0;1092;0;0;0;0;5;0;0;0;0;0;0;0;0;6;0;3711;2;0;0;0;0;0;7;0;9249;0;0;0;0;8;0;9212;0;0;0;0;9;0;4899;0;0;0;0
31.01.21;22:20:00;1;797;18762;0;2;0;2855;0;0;0;0;3;0;1071;0;0;0;0;4;0;1092;0;0;0;0;5;0;0;0;0;0;0;0;0;6;0;3711;2;0;0;0;0;0;7;0;9249;0;0;0;0;8;0;9212;0;0;0;0;9;0;4899;0;0;0;0
31.01.21;22:15:00;1;1247;18694;0;2;0;2855;0;0;0;0;3;0;1071;0;0;0;0;4;0;1092;0;0;0;0;5;0;0;0;0;0;0;0;0;6;0;3711;2;0;0;0;0;0;7;0;9249;0;0;0;0;8;0;9212;0;0;0;0;9;0;4899;0;0;0;0
31.01.21;22:10:00;1;780;18589;0;2;0;2855;0;0;0;0;3;0;1071;0;0;0;0;4;0;1092;0;0;0;0;5;0;0;0;0;0;0;0;0;6;0;3711;2;0;0;0;0;0;7;0;9249;0;0;0;0;8;0;9212;0;0;0;0;9;0;4899;0;0;0;0
31.01.21;22:05:00;1;726;18524;0;2;0;2855;0;0;0;0;3;0;1071;0;0;0;0;4;0;1092;0;0;0;0;5;0;0;0;0;0;0;0;0;6;0;3711;2;0;0;0;0;0;7;0;9249;0;0;0;0;8;0;9212;0;0;0;0;9;0;4899;0;0;0;0
31.01.21;22:00:00;1;795;18463;0;2;0;2855;0;0;0;0;3;0;1071;0;0;0;0;4;0;1092;0;0;0;0;5;0;0;0;0;0;0;0;0;6;0;3711;2;0;0;0;0;0;7;0;9249;0;0;0;0;8;0;9212;0;0;0;0;9;0;4899;0;0;0;0
31.01.21;21:55:00;1;769;18397;0;2;0;2855;0;0;0;0;3;0;1071;0;0;0;0;4;0;1092;0;0;0;0;5;0;0;0;0;0;0;0;0;6;0;3711;2;0;0;0;0;0;7;0;9249;0;0;0;0;8;0;9212;0;0;0;0;9;0;4899;0;0;0;0
31.01.21;21:50:00;1;1220;18332;0;2;0;2855;0;0;0;0;3;0;1071;0;0;0;0;4;0;1092;0;0;0;0;5;0;0;0;0;0;0;0;0;6;0;3711;2;0;0;0;0;0;7;0;9249;0;0;0;0;8;0;9212;0;0;0;0;9;0;4899;0;0;0;0
31.01.21;21:45:00;1;993;18226;0;2;0;2855;0;0;0;0;3;0;1071;0;0;0;0;4;0;1092;0;0;0;0;5;0;0;0;0;0;0;0;0;6;0;3711;2;0;0;0;0;0;7;0;9249;0;0;0;0;8;0;9212;0;0;0;0;9;0;4899;0;0;0;0
31.01.21;21:40:00;1;882;18146;0;2;0;2855;0;0;0;0;3;0;1071;0;0;0;0;4;0;1092;0;0;0;0;5;0;0;0;0;0;0;0;0;6;0;3711;2;0;0;0;0;0;7;0;9249;0;0;0;0;8;0;9212;0;0;0;0;9;0;4899;0;0;0;0
31.01.21;21:35:00;1;745;18076;0;2;0;2855;0;0;0;0;3;0;1071;0;0;0;0;4;0;1092;0;0;0;0;5;0;0;0;0;0;0;0;0;6;0;3711;2;0;0;0;0;0;7;0;9249;0;0;0;0;8;0;9212;0;0;0;0;9;0;4899;0;0;0;0
31.01.21;21:30:00;1;872;18013;0;2;0;2855;0;0;0;0;3;0;1071;0;0;0;0;4;0;1092;0;0;0;0;5;0;0;0;0;0;0;0;0;6;0;3711;2;0;0;0;0;0;7;0;9249;0;0;0;0;8;0;9212;0;0;0;0;9;0;4899;0;0;0;0
31.01.21;21:25:00;1;962;17942;0;2;0;2855;0;0;0;0;3;0;1071;0;0;0;0;4;0;1092;0;0;0;0;5;0;0;0;0;0;0;0;0;6;0;3711;2;0;0;0;0;0;7;0;9249;0;0;0;0;8;0;9212;0;0;0;0;9;0;4899;0;0;0;0
31.01.21;21:20:00;1;811;17855;0;2;0;2855;0;0;0;0;3;0;1071;0;0;0;0;4;0;1092;0;0;0;0;5;0;0;0;0;0;0;0;0;6;0;3711;2;0;0;0;0;0;7;0;9249;0;0;0;0;8;0;9212;0;0;0;0;9;0;4899;0;0;0;0
31.01.21;21:15:00;1;815;17786;0;2;0;2855;0;0;0;0;3;0;1071;0;0;0;0;4;0;1092;0;0;0;0;5;0;0;0;0;0;0;0;0;6;0;3711;2;0;0;0;0;0;7;0;9249;0;0;0;0;8;0;9212;0;0;0;0;9;0;4899;0;0;0;0
31.01.21;21:10:00;1;821;17717;0;2;0;2855;0;0;0;0;3;0;1071;0;0;0;0;4;0;1092;0;0;0;0;5;0;0;0;0;0;0;0;0;6;0;3711;2;0;0;0;0;0;7;0;9249;0;0;0;0;8;0;9212;0;0;0;0;9;0;4899;0;0;0;0
31.01.21;21:05:00;1;755;17650;0;2;0;2855;0;0;0;0;3;0;1071;0;0;0;0;4;0;1092;0;0;0;0;5;0;0;0;0;0;0;0;0;6;0;3711;2;0;0;0;0;0;7;0;9249;0;0;0;0;8;0;9212;0;0;0;0;9;0;4899;0;0;0;0
31.01.21;21:00:00;1;898;17585;0;2;0;2855;0;0;0;0;3;0;1071;0;0;0;0;4;0;1092;0;0;0;0;5;0;0;0;0;0;0;0;0;6;0;3711;2;0;0;0;0;0;7;0;9249;0;0;0;0;8;0;9212;0;0;0;0;9;0;4899;0;0;0;0
31.01.21;20:55:00;1;1019;17488;0;2;0;2855;0;0;0;0;3;0;1071;0;0;0;0;4;0;1092;0;0;0;0;5;0;0;0;0;0;0;0;0;6;0;3711;2;0;0;0;0;0;7;0;9249;0;0;0;0;8;0;9212;0;0;0;0;9;0;4899;0;0;0;0
31.01.21;20:50:00;1;1306;17405;0;2;0;2855;0;0;0;0;3;0;1071;0;0;0;0;4;0;1092;0;0;0;0;5;0;0;0;0;0;0;0;0;6;0;3711;2;0;0;0;0;0;7;0;9249;0;0;0;0;8;0;9212;0;0;0;0;9;0;4899;0;0;0;0
31.01.21;20:45:00;1;1284;17296;0;2;0;2855;0;0;0;0;3;0;1071;0;0;0;0;4;0;1092;0;0;0;0;5;0;0;0;0;0;0;0;0;6;0;3711;2;0;0;0;0;0;7;0;9249;0;0;0;0;8;0;9212;0;0;0;0;9;0;4899;0;0;0;0
31.01.21;20:40:00;1;1312;17188;0;2;0;2855;0;0;0;0;3;0;1071;0;0;0;0;4;0;1092;0;0;0;0;5;0;0;0;0;0;0;0;0;6;0;3711;2;0;0;0;0;0;7;0;9249;0;0;0;0;8;0;9212;0;0;0;0;9;0;4899;0;0;0;0
31.01.21;20:35:00;1;1681;17078;0;2;0;2855;0;0;0;0;3;0;1071;0;0;0;0;4;0;1092;0;0;0;0;5;0;0;0;0;0;0;0;0;6;0;3711;2;0;0;0;0;0;7;0;9249;0;0;0;0;8;0;9212;0;0;0;0;9;0;4899;0;0;0;0
31.01.21;20:30:00;1;1252;16938;0;2;0;2855;0;0;0;0;3;0;1071;0;0;0;0;4;0;1092;0;0;0;0;5;0;0;0;0;0;0;0;0;6;0;3711;2;0;0;0;0;0;7;0;9249;0;0;0;0;8;0;9212;0;0;0;0;9;0;4899;0;0;0;0
31.01.21;20:25:00;1;1262;16834;0;2;0;2855;0;0;0;0;3;0;1071;0;0;0;0;4;0;1092;0;0;0;0;5;0;0;0;0;0;0;0;0;6;0;3711;2;0;0;0;0;0;7;0;9249;0;0;0;0;8;0;9212;0;0;0;0;9;0;4899;0;0;0;0
31.01.21;20:20:00;1;1262;16730;0;2;0;2855;0;0;0;0;3;0;1071;0;0;0;0;4;0;1092;0;0;0;0;5;0;0;0;0;0;0;0;0;6;0;3711;2;0;0;0;0;0;7;0;9249;0;0;0;0;8;0;9212;0;0;0;0;9;0;4899;0;0;0;0
31.01.21;20:15:00;1;1175;16626;0;2;0;2855;0;0;0;0;3;0;1071;0;0;0;0;4;0;1092;0;0;0;0;5;0;0;0;0;0;0;0;0;6;0;3711;2;0;0;0;0;0;7;0;9249;0;0;0;0;8;0;9212;0;0;0;0;9;0;4899;0;0;0;0
31.01.21;20:10:00;1;1463;16527;0;2;0;2855;0;0;0;0;3;0;1071;0;0;0;0;4;0;1092;0;0;0;0;5;0;0;0;0;0;0;0;0;6;0;3711;2;0;0;0;0;0;7;0;9249;0;0;0;0;8;0;9212;0;0;0;0;9;0;4899;0;0;0;0
31.01.21;20:05:00;1;1126;16397;0;2;0;2855;0;0;0;0;3;0;1071;0;0;0;0;4;0;1092;0;0;0;0;5;0;0;0;0;0;0;0;0;6;0;3711;2;0;0;0;0;0;7;0;9249;0;0;0;0;8;0;9212;0;0;0;0;9;0;4899;0;0;0;0
31.01.21;20:00:00;1;1123;16303;0;2;0;2855;0;0;0;0;3;0;1071;0;0;0;0;4;0;1092;0;0;0;0;5;0;0;0;0;0;0;0;0;6;0;3711;2;0;0;0;0;0;7;0;9249;0;0;0;0;8;0;9212;0;0;0;0;9;0;4899;0;0;0;0
31.01.21;19:55:00;1;1077;16209;0;2;0;2855;0;0;0;0;3;0;1071;0;0;0;0;4;0;1092;0;0;0;0;5;0;0;0;0;0;0;0;0;6;0;3711;2;0;0;0;0;0;7;0;9249;0;0;0;0;8;0;9212;0;0;0;0;9;0;4899;0;0;0;0
31.01.21;19:50:00;1;1109;16117;0;2;0;2855;0;0;0;0;3;0;1071;0;0;0;0;4;0;1092;0;0;0;0;5;0;0;0;0;0;0;0;0;6;0;3711;2;0;0;0;0;0;7;0;9249;0;0;0;0;8;0;9212;0;0;0;0;9;0;4899;0;0;0;0
31.01.21;19:45:00;1;1474;16025;0;2;0;2855;0;0;0;0;3;0;1071;0;0;0;0;4;0;1092;0;0;0;0;5;0;0;0;0;0;0;0;0;6;0;3711;2;0;0;0;0;0;7;0;9249;0;0;0;0;8;0;9212;0;0;0;0;9;0;4899;0;0;0;0
31.01.21;19:40:00;1;1144;15903;0;2;0;2855;0;0;0;0;3;0;1071;0;0;0;0;4;0;1092;0;0;0;0;5;0;0;0;0;0;0;0;0;6;0;3711;2;0;0;0;0;0;7;0;9249;0;0;0;0;8;0;9212;0;0;0;0;9;0;4899;0;0;0;0
31.01.21;19:35:00;1;1154;15808;0;2;0;2855;0;0;0;0;3;0;1071;0;0;0;0;4;0;1092;0;0;0;0;5;0;0;0;0;0;0;0;0;6;0;3711;0;0;0;0;0;0;7;0;9249;0;0;0;0;8;0;9212;0;0;0;0;9;0;4899;0;0;0;0
31.01.21;19:30:00;1;1205;15711;0;2;0;2855;0;0;0;0;3;0;1071;0;0;0;0;4;0;1092;0;0;0;0;5;0;0;0;0;0;0;0;0;6;0;3711;2;0;0;0;0;0;7;0;9249;0;0;0;0;8;0;9212;0;0;0;0;9;0;4899;0;0;0;0
31.01.21;19:25:00;1;967;15612;0;2;0;2855;0;0;0;0;3;0;1071;0;0;0;0;4;0;1092;0;0;0;0;5;0;0;0;0;0;0;0;0;6;0;3711;2;0;0;0;0;0;7;0;9249;0;0;0;0;8;0;9212;0;0;0;0;9;0;4899;0;0;0;0
31.01.21;19:20:00;1;710;15531;0;2;0;2855;0;0;0;0;3;0;1071;0;0;0;0;4;0;1092;0;0;0;0;5;0;0;0;0;0;0;0;0;6;0;3711;2;0;0;0;0;0;7;0;9249;0;0;0;0;8;0;9212;0;0;0;0;9;0;4899;0;0;0;0
31.01.21;19:15:00;1;711;15476;0;2;0;2855;0;0;0;0;3;0;1071;0;0;0;0;4;0;1092;0;0;0;0;5;0;0;0;0;0;0;0;0;6;0;3711;2;0;0;0;0;0;7;0;9249;0;0;0;0;8;0;9212;0;0;0;0;9;0;4899;0;0;0;0
31.01.21;19:10:00;1;529;15411;0;2;0;2855;0;0;0;0;3;0;1071;0;0;0;0;4;0;1092;0;0;0;0;5;0;0;0;0;0;0;0;0;6;0;3711;2;0;0;0;0;0;7;0;9249;0;0;0;0;8;0;9212;0;0;0;0;9;0;4899;0;0;0;0
31.01.21;19:05:00;1;559;15367;0;2;0;2855;0;0;0;0;3;0;1071;0;0;0;0;4;0;1092;0;0;0;0;5;0;0;0;0;0;0;0;0;6;0;3711;2;0;0;0;0;0;7;0;9249;0;0;0;0;8;0;9212;0;0;0;0;9;0;4899;0;0;0;0
31.01.21;19:00:00;1;538;15320;0;2;0;2855;0;0;0;0;3;0;1071;0;0;0;0;4;0;1092;0;0;0;0;5;0;0;0;0;0;0;0;0;6;0;3711;2;0;0;0;0;0;7;0;9249;0;0;0;0;8;0;9212;0;0;0;0;9;0;4899;0;0;0;0
31.01.21;18:55:00;1;513;15275;0;2;0;2855;0;0;0;0;3;0;1071;0;0;0;0;4;0;1092;0;0;0;0;5;0;0;0;0;0;0;0;0;6;0;3711;2;0;0;0;0;0;7;0;9249;0;0;0;0;8;0;9212;0;0;0;0;9;0;4899;0;0;0;0
31.01.21;18:50:00;1;907;15232;0;2;0;2855;0;0;0;0;3;0;1071;0;0;0;0;4;0;1092;0;0;0;0;5;0;0;0;0;0;0;0;0;6;0;3711;2;0;0;0;0;0;7;0;9249;0;0;0;0;8;0;9212;0;0;0;0;9;0;4899;0;0;0;0
31.01.21;18:45:00;1;545;15151;0;2;0;2855;0;0;0;0;3;0;1071;0;0;0;0;4;0;1092;0;0;0;0;5;0;0;0;0;0;0;0;0;6;0;3711;2;0;0;0;0;0;7;0;9249;0;0;0;0;8;0;9212;0;0;0;0;9;0;4899;0;0;0;0
31.01.21;18:40:00;1;571;15103;0;2;0;2855;0;0;0;0;3;0;1071;0;0;0;0;4;0;1092;0;0;0;0;5;0;0;0;0;0;0;0;0;6;0;3711;2;0;0;0;0;0;7;0;9249;0;0;0;0;8;0;9212;0;0;0;0;9;0;4899;0;0;0;0
31.01.21;18:35:00;1;715;15056;0;2;0;2855;0;0;0;0;3;0;1071;0;0;0;0;4;0;1092;0;0;0;0;5;0;0;0;0;0;0;0;0;6;0;3711;2;0;0;0;0;0;7;0;9249;0;0;0;0;8;0;9212;0;0;0;0;9;0;4899;0;0;0;0
31.01.21;18:30:00;1;593;15000;0;2;0;2855;0;0;0;0;3;0;1071;0;0;0;0;4;0;1092;0;0;0;0;5;0;0;0;0;0;0;0;0;6;0;3711;2;0;0;0;0;0;7;0;9249;0;0;0;0;8;0;9212;0;0;0;0;9;0;4899;0;0;0;0
31.01.21;18:25:00;1;1201;14949;0;2;0;2855;0;0;0;0;3;0;1071;0;0;0;0;4;0;1092;0;0;0;0;5;0;0;0;0;0;0;0;0;6;0;3711;2;0;0;0;0;0;7;0;9249;0;0;0;0;8;0;9212;0;0;0;0;9;0;4899;0;0;0;0
31.01.21;18:20:00;1;753;14864;0;2;0;2855;0;0;0;0;3;0;1071;0;0;0;0;4;0;1092;0;0;0;0;5;0;0;0;0;0;0;0;0;6;0;3711;2;0;0;0;0;0;7;0;9249;0;0;0;0;8;0;9212;0;0;0;0;9;0;4899;0;0;0;0
31.01.21;18:15:00;1;849;14804;0;2;0;2855;0;0;0;0;3;0;1071;0;0;0;0;4;0;1092;0;0;0;0;5;0;0;0;0;0;0;0;0;6;0;3711;2;0;0;0;0;0;7;0;9249;0;0;0;0;8;0;9212;0;0;0;0;9;0;4899;0;0;0;0
31.01.21;18:10:00;1;968;14734;0;2;0;2855;0;0;0;0;3;0;1071;0;0;0;0;4;0;1092;0;0;0;0;5;0;0;0;0;0;0;0;0;6;0;3711;2;0;0;0;0;0;7;0;9249;0;0;0;0;8;0;9212;0;0;0;0;9;0;4899;0;0;0;0
31.01.21;18:05:00;1;1030;14653;0;2;0;2855;0;0;0;0;3;0;1071;0;0;0;0;4;0;1092;0;0;0;0;5;0;0;0;0;0;0;0;0;6;0;3711;2;0;0;0;0;0;7;0;9249;0;0;0;0;8;0;9212;0;0;0;0;9;0;4899;0;0;0;0
31.01.21;18:00:00;1;1055;14575;0;2;0;2855;0;0;0;0;3;0;1071;0;0;0;0;4;0;1092;0;0;0;0;5;0;0;0;0;0;0;0;0;6;0;3711;2;0;0;0;0;0;7;0;9249;0;0;0;0;8;0;9212;0;0;0;0;9;0;4899;0;0;0;0
31.01.21;17:55:00;1;1035;14491;0;2;0;2855;0;0;0;0;3;0;1071;0;0;0;0;4;0;1092;0;0;0;0;5;0;0;0;0;0;0;0;0;6;0;3711;2;0;0;0;0;0;7;0;9249;0;0;0;0;8;0;9212;0;0;0;0;9;0;4899;0;0;0;0
31.01.21;17:50:00;1;1020;14387;0;2;0;2855;0;0;0;0;3;0;1071;0;0;0;0;4;0;1092;0;0;0;0;5;0;0;0;0;0;0;0;0;6;0;3711;2;0;0;0;0;0;7;0;9249;0;0;0;0;8;0;9212;0;0;0;0;9;0;4899;0;0;0;0
31.01.21;17:45:00;1;1090;14300;0;2;0;2855;0;0;0;0;3;0;1071;0;0;0;0;4;0;1092;0;0;0;0;5;0;0;0;0;0;0;0;0;6;0;3711;2;0;0;0;0;0;7;0;9249;0;0;0;0;8;0;9212;0;0;0;0;9;0;4899;0;0;0;0
31.01.21;17:40:00;1;2073;14202;0;2;0;2855;0;0;0;0;3;0;1071;0;0;0;0;4;0;1092;0;0;0;0;5;0;0;0;0;0;0;0;0;6;0;3711;2;0;0;0;0;0;7;0;9249;0;0;0;0;8;0;9212;0;0;0;0;9;0;4899;0;0;0;0
31.01.21;17:35:00;1;2192;14026;0;2;0;2855;0;0;0;0;3;0;1071;0;0;0;0;4;0;1092;0;0;0;0;5;0;0;0;0;0;0;0;0;6;0;3711;2;0;0;0;0;0;7;0;9249;0;0;0;0;8;0;9212;0;0;0;0;9;0;4899;0;0;0;0
31.01.21;17:30:00;1;2591;13841;0;2;0;2855;0;0;0;0;3;0;1071;0;0;0;0;4;0;1092;0;0;0;0;5;0;0;0;0;0;0;0;0;6;0;3711;2;0;0;0;0;0;7;0;9249;0;0;0;0;8;0;9212;0;0;0;0;9;0;4899;0;0;0;0
31.01.21;17:25:00;1;2786;13630;0;2;0;2855;0;0;84;3;3;0;1071;0;0;225;11;4;0;1092;0;0;0;0;5;0;0;0;0;0;0;0;0;6;0;3711;2;0;0;0;0;0;7;0;9249;0;0;0;0;8;0;9212;0;0;0;0;9;0;4899;0;0;0;0
31.01.21;17:20:00;1;3363;13404;0;2;0;2855;6;0;297;11;3;0;1071;6;0;333;14;4;0;1092;0;0;33;4;5;0;0;0;0;0;0;0;0;6;0;3711;2;0;0;0;0;0;7;0;9249;0;0;0;0;8;0;9212;0;0;0;0;9;0;4899;0;0;0;0
31.01.21;17:15:00;1;1022;13063;0;2;0;2855;6;0;344;11;3;0;1071;6;0;399;14;4;0;1092;2;0;97;8;5;0;0;0;0;0;0;0;0;6;0;3711;1;2;1;106;59;9;7;0;9249;0;0;46;5;8;0;9212;0;0;85;5;9;0;4899;0;0;134;5
31.01.21;17:10:00;1;1599;12977;0;2;0;2855;6;0;385;11;3;0;1071;6;1;468;14;4;0;1092;1;0;155;8;5;0;0;0;0;0;0;0;0;6;0;3711;23;5;4;328;427;21;7;0;9249;6;0;333;16;8;0;9212;6;0;341;16;9;0;4899;6;0;360;11
31.01.21;17:05:00;1;929;12853;0;2;0;2855;6;0;405;12;3;0;1071;6;1;493;14;4;0;1092;1;0;192;8;5;0;0;0;0;0;0;0;0;6;0;3711;23;4;4;247;583;22;7;0;9249;6;0;395;17;8;0;9212;6;0;402;16;9;0;4899;6;0;424;12
31.01.21;17:00:00;1;1223;12766;0;2;1;2855;6;3;409;12;3;1;1071;6;3;513;14;4;0;1092;1;0;210;9;5;0;0;0;0;0;0;0;0;6;0;3711;23;5;4;181;600;22;7;0;9249;6;3;426;17;8;1;9212;6;3;431;17;9;0;4899;6;1;489;12
31.01.21;16:55:00;1;2252;12669;0;2;0;2854;6;4;417;12;3;1;1071;4;3;523;15;4;0;1092;1;0;219;9;5;0;0;0;0;0;0;0;0;6;0;3711;23;5;5;410;610;23;7;2;9249;6;4;467;18;8;0;9212;6;4;471;17;9;1;4899;6;2;518;12
31.01.21;16:50:00;1;2850;12469;0;2;0;2854;6;0;440;13;3;4;1071;3;19;490;15;4;0;1092;3;0;223;9;5;0;0;0;0;0;0;0;0;6;54;3710;4;12;32;448;450;24;7;1;9249;6;7;492;18;8;2;9212;6;7;493;17;9;4;4899;4;9;520;13
31.01.21;16:45:00;1;2839;12234;0;2;50;2854;4;78;351;13;3;4;1070;6;8;548;15;4;0;1092;3;0;217;10;5;0;0;0;0;0;0;0;0;6;69;3706;4;20;61;448;450;24;7;42;9249;4;75;384;18;8;37;9212;4;74;383;18;9;4;4898;6;8;554;13
31.01.21;16:40:00;1;2971;11995;0;2;75;2850;4;104;353;14;3;26;1070;6;41;455;15;4;0;1092;3;0;199;10;5;0;0;0;0;0;0;0;0;6;90;3700;4;23;70;448;449;24;7;68;9245;4;103;455;19;8;63;9209;4;102;446;18;9;4;4897;6;8;567;13
31.01.21;16:35:00;1;2757;11734;0;2;118;2844;4;150;355;14;3;68;1068;4;97;394;16;4;13;1092;3;14;199;10;5;0;0;0;0;0;0;0;0;6;118;3692;4;36;98;448;450;24;7;119;9239;4;159;428;19;8;120;9203;4;155;417;18;9;33;4897;6;48;533;14
31.01.21;16:30:00;1;2236;11504;0;2;162;2834;4;196;355;14;3;93;1062;4;123;374;16;4;23;1091;3;24;198;10;5;0;0;0;0;0;0;0;0;6;152;3682;4;44;122;448;450;24;7;181;9229;4;224;440;20;8;179;9193;4;218;426;19;9;78;4894;4;103;417;12
31.01.21;16:25:00;1;967;11302;0;2;202;2820;4;237;355;14;3;116;1054;4;149;377;16;4;47;1089;3;49;197;10;5;0;0;0;0;0;0;0;0;6;198;3669;4;45;140;448;522;24;7;250;9214;4;292;452;20;8;246;9178;4;286;468;19;9;122;4886;4;154;513;15
31.01.21;16:20:00;1;814;11216;0;2;257;2803;4;290;357;15;3;140;1045;4;174;413;16;4;51;1085;3;54;197;10;5;0;0;0;0;0;0;0;0;6;243;3652;4;55;199;448;563;24;7;336;9193;4;385;455;20;8;326;9158;4;369;461;20;9;162;4876;4;194;519;15
31.01.21;16:15:00;1;652;11150;0;2;351;2782;4;389;356;15;3;103;1033;4;144;518;16;4;64;1081;3;67;203;10;5;0;0;0;0;0;0;0;0;6;293;3631;4;72;243;485;570;24;7;457;9165;4;494;485;21;8;416;9131;4;454;429;20;9;194;4863;4;229;531;16
31.01.21;16:10:00;1;693;11095;0;2;1399;2751;4;1469;353;16;3;455;1024;4;509;562;17;4;315;1075;5;328;248;10;5;0;0;0;0;0;0;0;0;6;977;3602;4;241;745;649;603;24;7;2253;9126;4;2365;502;21;8;1543;9096;4;1618;403;20;9;280;4846;4;321;574;16
31.01.21;16:05:00;1;409;11025;0;2;1540;2638;4;1615;354;16;3;513;987;4;568;561;17;4;335;1050;5;349;240;10;5;0;0;0;0;0;0;0;0;6;1107;3517;4;257;893;553;616;24;7;2793;8952;4;2939;502;21;8;1896;8947;0;1979;359;17;9;316;4824;4;363;592;17
31.01.21;16:00:00;1;655;10991;0;2;1182;2509;4;1246;365;15;3;395;944;4;449;559;16;4;262;1022;5;273;241;10;5;0;0;0;0;0;0;0;0;6;927;3425;4;201;760;465;611;24;7;2542;8718;4;2657;497;21;8;2165;8792;4;2269;467;21;9;359;4797;4;407;594;17
31.01.21;15:55:00;1;399;10923;0;2;498;2411;4;541;355;15;3;142;911;4;184;571;16;4;106;1000;5;110;221;10;5;0;0;0;0;0;0;0;0;6;441;3351;4;88;336;448;602;24;7;869;8505;4;923;493;22;8;813;8611;4;864;492;21;9;334;4767;4;379;564;18
31.01.21;15:50:00;1;834;10890;0;2;357;2370;4;397;354;15;3;100;899;4;142;550;16;4;72;991;3;75;198;10;5;0;0;0;0;0;0;0;0;6;352;3316;4;78;278;448;588;24;7;618;8434;4;668;487;22;8;597;8544;4;646;479;22;9;283;4739;4;327;544;18
31.01.21;15:45:00;1;451;10825;0;2;339;2339;4;376;354;15;3;97;891;4;138;534;16;4;72;985;3;75;198;10;5;0;0;0;0;0;0;0;0;6;347;3286;4;68;267;448;589;24;7;584;8382;4;632;488;23;8;565;8493;4;615;471;22;9;282;4716;4;324;544;19
31.01.21;15:40:00;1;2793;10787;0;2;350;2311;4;389;354;16;3;102;883;4;142;522;16;4;64;979;3;67;198;10;5;0;0;0;0;0;0;0;0;6;355;3257;4;80;285;448;588;24;7;611;8332;4;665;484;23;8;590;8446;4;645;483;23;9;290;4692;4;336;544;19
31.01.21;15:35:00;1;2226;10568;0;2;384;2282;4;423;352;16;3;113;874;4;153;538;17;4;73;973;3;76;198;10;5;0;0;0;0;0;0;0;0;6;368;3227;4;78;297;447;586;24;7;654;8281;4;704;482;24;8;635;8397;4;687;478;24;9;302;4668;4;345;523;20
31.01.21;15:30:00;1;2534;10382;0;2;609;2250;4;655;351;17;3;178;865;4;221;549;17;4;107;967;3;112;219;10;5;0;0;0;0;0;0;0;0;6;531;3196;4;120;415;505;597;24;7;1003;8227;4;1070;477;25;8;973;8343;4;1034;471;25;9;448;4642;4;499;536;22
31.01.21;15:25:00;1;2314;10158;0;2;1187;2201;4;1254;356;18;3;372;851;4;421;533;17;4;202;959;5;210;220;10;5;0;0;0;0;0;0;0;0;6;1096;3152;4;286;829;661;618;24;7;2042;8146;4;2145;477;26;8;1964;8265;4;2067;480;25;9;986;4606;4;1062;531;23
31.01.21;15:20:00;1;1153;9965;0;2;1816;2098;4;1902;354;18;3;543;818;4;598;528;17;4;308;941;5;321;213;10;5;0;0;0;0;0;0;0;0;6;1695;3049;4;486;1226;670;639;23;7;4010;7971;4;4204;480;26;8;3933;8096;4;4125;483;25;9;2125;4520;4;2251;525;24
31.01.21;15:15:00;1;760;9884;0;2;1994;1946;4;2090;355;17;3;506;773;4;561;546;17;4;295;916;5;308;206;10;5;0;0;0;0;0;0;0;0;6;1497;2909;4;467;1057;688;652;23;7;4027;7637;4;4222;478;25;8;3968;7768;4;4155;481;25;9;2162;4343;4;2296;533;24
31.01.21;15:10:00;1;725;9835;0;2;1831;1779;4;1919;356;17;3;482;731;4;538;555;17;4;291;891;5;303;221;10;5;0;0;0;0;0;0;0;0;6;1430;2783;4;509;980;677;645;23;7;4098;7307;4;4293;485;25;8;4033;7443;4;4227;482;25;9;2193;4168;4;2321;527;24
31.01.21;15:05:00;1;454;9760;0;2;1636;1625;4;1716;356;16;3;456;690;4;508;557;17;4;289;867;5;301;215;10;5;0;0;0;0;0;0;0;0;6;1437;2664;4;515;950;679;656;23;7;4177;6959;4;4381;476;25;8;4135;7101;4;4331;480;25;9;2256;3981;4;2391;528;24
31.01.21;15:00:00;1;868;9721;0;2;1447;1489;4;1518;363;15;3;438;652;4;494;575;16;4;281;843;5;293;223;10;5;0;0;0;0;0;0;0;0;6;1430;2545;4;521;942;678;648;23;7;4281;6611;4;4481;481;25;8;4229;6757;4;4432;478;25;9;2321;3793;4;2456;530;24
31.01.21;14:55:00;1;704;9658;0;2;1286;1369;4;1350;361;15;3;418;616;4;471;574;16;4;281;819;5;293;230;10;5;0;0;0;0;0;0;0;0;6;1420;2427;4;512;935;679;653;23;7;4345;6254;4;4563;486;25;8;4324;6405;4;4530;481;25;9;2368;3599;4;2510;531;24
31.01.21;14:50:00;1;2019;9609;0;2;1190;1262;4;1250;353;15;3;399;581;4;455;577;16;4;294;796;5;307;234;10;5;0;0;0;0;0;0;0;0;6;1454;2307;4;526;951;677;653;23;7;4465;5892;4;4681;477;24;8;4431;6043;4;4637;482;24;9;2430;3402;4;2575;536;24
31.01.21;14:45:00;1;2509;9442;0;2;1066;1163;4;1119;355;14;3;384;548;4;439;563;16;4;309;771;5;322;241;10;5;0;0;0;0;0;0;0;0;6;1444;2188;4;526;937;675;661;23;7;4577;5520;4;4800;479;24;8;4501;5675;4;4716;479;24;9;2468;3199;4;2612;527;24
31.01.21;14:40:00;1;2463;9242;0;2;723;1074;4;775;431;14;3;366;516;4;414;569;16;4;336;745;5;350;235;10;5;0;0;0;0;0;0;0;0;6;1417;2068;4;492;919;684;654;23;7;4692;5138;4;4916;481;23;8;4646;5298;4;4872;475;23;9;2545;2993;4;2697;530;23
31.01.21;14:35:00;1;1029;9021;0;2;685;1014;4;732;436;14;3;353;485;4;407;566;16;4;349;717;5;363;228;10;5;0;0;0;0;0;0;0;0;6;1409;1949;4;507;924;683;654;23;7;4794;4747;4;5024;477;22;8;4548;4911;4;4770;473;23;9;2596;2780;4;2751;524;23
31.01.21;14:30:00;1;1514;8945;0;2;643;957;4;691;438;14;3;347;456;4;397;562;16;4;358;688;5;372;240;10;5;0;0;0;0;0;0;0;0;6;1382;1832;4;502;901;682;660;23;7;4899;4347;4;5146;479;21;8;4879;4529;4;5117;471;22;9;2678;2564;4;2841;533;22
31.01.21;14:25:00;1;419;8844;0;2;619;903;4;665;440;14;3;343;427;4;395;553;15;4;364;658;5;379;240;10;5;0;0;0;0;0;0;0;0;6;1367;1718;4;499;896;678;649;23;7;5046;3939;4;5300;477;21;8;5066;4122;4;5317;477;21;9;2788;2340;4;2954;529;22
31.01.21;14:20:00;1;815;8805;0;2;574;852;4;619;442;13;3;320;398;4;369;582;15;4;349;628;5;363;246;9;5;0;0;0;0;0;0;0;0;6;1282;1605;4;484;845;675;657;23;7;4964;3519;4;5196;480;19;8;5117;3700;4;5366;480;20;9;2818;2109;4;2985;529;21
31.01.21;14:15:00;1;739;8733;0;2;542;804;4;588;445;13;3;304;372;4;354;587;15;4;343;599;5;357;245;9;5;0;0;0;0;0;0;0;0;6;1194;1499;4;448;763;680;661;23;7;4800;3105;4;5030;480;18;8;5120;3274;4;5363;477;19;9;2829;1874;4;2989;528;20
31.01.21;14:10:00;1;769;8689;0;2;569;759;4;617;447;13;3;311;346;4;359;574;15;4;391;570;5;407;240;9;5;0;0;0;0;0;0;0;0;6;1246;1399;4;487;783;673;655;22;7;4915;2705;4;5152;481;17;8;5491;2846;4;5758;481;17;9;3046;1637;4;3218;524;19
31.01.21;14:05:00;1;656;8627;0;2;594;711;4;641;447;13;3;321;320;4;370;570;15;4;443;538;5;461;246;9;5;0;0;0;0;0;0;0;0;6;1278;1295;4;515;792;673;653;22;7;5040;2296;4;5281;477;16;8;5843;2389;4;6122;480;16;9;3318;1384;4;3503;522;18
31.01.21;14:00:00;1;687;8581;0;2;492;662;4;533;417;12;3;285;293;4;332;592;15;4;406;501;5;423;252;9;5;0;0;0;0;0;0;0;0;6;1036;1191;4;433;608;650;581;22;7;4393;1876;4;4596;454;15;8;5167;1902;4;5403;444;15;9;3133;1106;4;3311;518;15
31.01.21;13:55:00;1;458;8506;0;2;473;621;4;513;421;12;3;273;270;4;318;559;14;4;392;467;5;408;260;9;5;0;0;0;0;0;0;0;0;6;1006;1106;4;425;605;639;650;22;7;3092;1509;4;3233;460;15;8;3648;1470;4;3804;405;14;9;2290;846;4;2417;494;14
31.01.21;13:50:00;1;694;8467;0;2;477;582;4;518;429;12;3;282;247;4;326;535;14;4;414;434;5;431;257;9;5;0;0;0;0;0;0;0;0;6;955;1021;4;416;593;635;647;22;7;2068;1247;4;2169;482;15;8;2656;1160;4;2773;400;14;9;1593;653;4;1689;508;12
31.01.21;13:45:00;1;406;8393;0;2;442;541;4;489;468;12;3;255;223;4;300;545;14;4;371;399;5;386;255;8;5;0;0;0;0;0;0;0;0;6;854;943;4;357;495;638;616;22;7;1539;1063;4;1632;531;14;8;2043;927;4;2131;463;14;9;1293;512;4;1380;543;11